Lexington Weather

Lexington, Massachusetts, USA

68°F
9/23/2021 5:31am 
  • Lexington Conditions: Mostly cloudy
  • Temperature: 67.6°F / 19.8°CWarmer 0.7°F than last hour.
  • Dew Point: 66.7°FIncreased 1.0°Fsince last hour.
  • Relative Humidity: 97%Increased 1.0% since last hour.
  • Wind: Wind from WSW WSW 1 mph, 10-min avg: Calm, gust: 2 mph
  • Barometer: 30.03 in Steady
  • Visibility: 10 miles
  • Rain Today: 0.00 in
  •   

Regional Weather Roundup
for Boston / Norton, MA

        
000
ASUS41 KBOX 221804
RWRBOX

REGIONAL WEATHER ROUNDUP
NATIONAL WEATHER SERVICE BOSTON/NORTON MA
200 PM EDT WED SEP 22 2021

NOTE:  "FAIR" INDICATES FEW OR NO CLOUDS BELOW 12,000 FEET WITH NO 
SIGNIFICANT WEATHER AND/OR OBSTRUCTIONS TO VISIBILITY.

MAZALL-221900-
EASTERN MASSACHUSETTS
  
CITY           SKY/WX    TMP DP  RH WIND       PRES   REMARKS
BOSTON         CLOUDY    78  66  66 S12       30.14F                  
6HR MIN TEMP:  70; 6HR MAX TEMP:  80;                                

BEVERLY        PTSUNNY   76  69  79 SE9       30.14F                  
LAWRENCE       CLOUDY    77  68  73 VRB6      30.16F                  
BEDFORD        LGT RAIN  73  69  87 S15       30.14F FOG              
BLUE HILL      NOT AVBL                                               
NORWOOD        CLOUDY    74  69  85 S10       30.14F                  
MARSHFIELD     CLOUDY    77  68  73 S10G20    30.15F                  
PLYMOUTH       MOSUNNY   78  66  66 S12G18    30.16F                  
TAUNTON        CLOUDY    77  67  71 S10G17    30.15F                  
NEW BEDFORD    CLOUDY    77  69  76 S14G25    30.15F                  
$$

MAZALL-221900-
CAPE COD AND THE ISLANDS
  
CITY           SKY/WX    TMP DP  RH WIND       PRES   REMARKS
FALMOUTH       PTSUNNY   77  68  73 S20       30.17F                  
HYANNIS        MOSUNNY   76  69  79 SE9       30.16F                  
CHATHAM        SUNNY     74  66  76 S9G20     30.19F                  
PROVINCETOWN   SUNNY     77  69  76 S12G18    30.18F                  
NANTUCKET        N/A    N/A N/A N/A MISG      30.18F                  
MARTHAS VNYRD  PTSUNNY   76  69  79 S13       30.17F                  
$$
 
MAZALL-221900-
CENTRAL AND WESTERN MASSACHUSETTS
  
CITY           SKY/WX    TMP DP  RH WIND       PRES   REMARKS
WORCESTER      LGT RAIN  70  69  97 SE12      30.15F                  
6HR MIN TEMP:  67; 6HR MAX TEMP:  71; 6HR PCP:  0.19;                

FITCHBURG      CLOUDY    71  69  93 SE12      30.14F                  
ORANGE         CLOUDY    75  69  81 SE8       30.12F                  
SPRINGFIELD    NOT AVBL                                               
WESTFIELD      PTSUNNY   76  73  91 S5        30.08F                  
NORTH ADAMS    MOSUNNY   80  65  59 SE10G21   30.07F                  
PITTSFIELD     MOSUNNY   77  65  66 MISG      30.08F                  
$$
 
RIZALL-221900-
RHODE ISLAND
  
CITY           SKY/WX    TMP DP  RH WIND       PRES   REMARKS
PROVIDENCE     LGT RAIN  72  71  97 S12       30.15F FOG              
6HR MIN TEMP:  72; 6HR MAX TEMP:  76; 6HR PCP:  0.02;                

NEWPORT        LGT RAIN  71  70  96 SE10      30.15F FOG              
BLOCK ISLAND   CLOUDY    73  69  87 SE13      30.14F                  
SMITHFIELD     LGT RAIN  70  69  97 VRB7      30.15F                  
WESTERLY       CLOUDY    70  69  97 S9        30.14F                  
$$
 
CTZALL-221900-
CONNECTICUT
  
CITY           SKY/WX    TMP DP  RH WIND       PRES   REMARKS
BRADLEY INTL   LGT RAIN  74  71  91 S8        30.09F                  
6HR MIN TEMP:  65; 6HR MAX TEMP:  78; 6HR PCP:  0.03;                

HARTFORD       CLOUDY    78  68  71 S12       30.08F                  
BRIDGEPORT     MOSUNNY   78  70  76 S10       30.08F                  
DANBURY        CLOUDY    80  68  66 S8G21     30.08F                  
GROTON         RAIN      72  70  93 S13       30.12F FOG              
NEW HAVEN      PTSUNNY   79  73  82 S9        30.09F                  
CHESTER        CLOUDY    73  72  94 VRB7      30.12F                  
MERIDEN        CLOUDY    77  69  76 SE10      30.09F                  
WILLIMANTIC    CLOUDY    73  70  90 S12G17    30.12F                  
OXFORD         CLOUDY    74  70  87 S10       30.11F                  
$$

MEZ002-015-021-024-NHZ003-005-008-011-012-014-VTZ005-008-221900-
NORTHERN NEW ENGLAND
  
CITY           SKY/WX    TMP DP  RH WIND       PRES   REMARKS
PORTLAND ME    PTSUNNY   71  65  81 S13G18    30.18F                  
6HR MIN TEMP:  65; 6HR MAX TEMP:  72;                                

BANGOR ME      MOSUNNY   75  62  64 S14       30.19F                  
CONCORD NH     CLOUDY    74  67  78 SE8       30.13F                  
MANCHESTER NH  LGT RAIN  74  66  76 SW8       30.12S                  
NASHUA NH      CLOUDY    75  72  90 VRB5      30.14F                  
PORTSMOUTH NH  CLOUDY    72  65  77 SE10      30.17F                  
JAFFREY NH     LGT RAIN  72  71  97 S7        30.15F FOG              
KEENE NH       PTSUNNY   76  69  79 S9G17     30.10F                  
BURLINGTON VT  PTSUNNY   79  65  62 S14G23    30.02F                  
MT. WASHINGTON NOT AVBL                                               
$$

NYZ052-076-221900-
EASTERN NEW YORK
  
CITY           SKY/WX    TMP DP  RH WIND       PRES   REMARKS
ALBANY         PTSUNNY   76  68  76 S10G18    30.03F                  
6HR MIN TEMP:  64; 6HR MAX TEMP:  77; 6HR PCP: TRACE;                

NEW YORK CITY  PTSUNNY   72  66  81 S14       30.05F                  
6HR MIN TEMP:  72; 6HR MAX TEMP:  79;                                

$$
 
ANZALL-221900-
MARINE OBSERVATIONS
  
STATION/POSITION TIME  TEMP    WIND        PRES    VSBY  WAVE
                       AIR SEA DIR/SP/G                  HT/PER
                 (UTC) (F)     (DEG/KT/KT) (MB)    (MI)  (FT/S)
BOSTON BUOY      1740      64  140/ 14/ 16 1021.4F
BUZZARDS BAY     1700          140/ 17/ 18 1022.5F
NANTUCKET SOUND  1740   74 72  160/ 14/ 17 1021.6F
MASS BAY-STELLWA 1704   68     150/ 12/ 16 1021.3F  1 7/8  2/ 3
ISLE OF SHOALS   1700   67     150/ 15/ 17 1021.4F
S OF BLOCK IS    1726      70                N/A           5/ 7
$$

......................KEY.........................
  SKY/WX - SKY CONDITION/PRESENT WEATHER
  TMP    - TEMPERATURE IN FAHRENHEIT
  DWPT   - DEWPOINT IN FAHRENHEIT
  RH     - RELATIVE HUMIDITY IN PERCENT
  WIND   - DIRECTION AND SPEED IN MPH
  PRES   - MEAN SEA LEVEL PRESSURE IN INCHES OF HG
  WCI    - WIND CHILL INDEX
  VSB    - VISIBILITY IN MILES
  HX     - HEAT INDEX
  TC     - TEMPERATURE IN CELSIUS
  VRB    - VARIABLE WIND DIRECTION
  N/A    - NOT AVAILABLE
  
      

Other recent Regional Weather Roundups

Thu Sep 23, 5:04am

Thu Sep 23, 4:04am

Thu Sep 23, 3:04am

Thu Sep 23, 2:04am

Thu Sep 23, 1:04am

Thu Sep 23, 12:04am

Wed Sep 22, 11:04pm

Wed Sep 22, 10:04pm

Wed Sep 22, 9:04pm

Wed Sep 22, 8:04pm

Wed Sep 22, 7:04pm

Wed Sep 22, 6:04pm

Wed Sep 22, 5:04pm

Wed Sep 22, 4:04pm

Wed Sep 22, 3:04pm

Wed Sep 22, 1:04pm

Wed Sep 22, 12:05pm

Wed Sep 22, 11:04am

Wed Sep 22, 10:04am

Wed Sep 22, 9:04am

Wed Sep 22, 8:04am

Wed Sep 22, 7:04am

Wed Sep 22, 6:04am

Wed Sep 22, 5:04am

Wed Sep 22, 4:04am

Wed Sep 22, 3:04am

Wed Sep 22, 2:04am

Wed Sep 22, 1:04am

Wed Sep 22, 12:04am

Tue Sep 21, 11:04pm

Tue Sep 21, 10:04pm

Tue Sep 21, 9:04pm

Tue Sep 21, 8:04pm

Tue Sep 21, 7:04pm

Tue Sep 21, 6:04pm

Tue Sep 21, 5:04pm

Tue Sep 21, 4:04pm

Tue Sep 21, 3:04pm

Tue Sep 21, 2:04pm

Tue Sep 21, 1:04pm

Tue Sep 21, 12:04pm

Tue Sep 21, 11:04am

Tue Sep 21, 10:04am

Tue Sep 21, 9:04am

Tue Sep 21, 8:04am

Tue Sep 21, 7:04am

Tue Sep 21, 6:04am

Tue Sep 21, 5:04am

Tue Sep 21, 4:04am

Tue Sep 21, 3:04am

Tue Sep 21, 2:04am

Tue Sep 21, 1:04am

Tue Sep 21, 12:04am

Mon Sep 20, 11:04pm

Mon Sep 20, 10:04pm

Mon Sep 20, 9:04pm

Mon Sep 20, 8:04pm

Mon Sep 20, 7:04pm

Mon Sep 20, 6:04pm

Mon Sep 20, 5:04pm

Mon Sep 20, 4:04pm

Mon Sep 20, 3:04pm

Mon Sep 20, 2:04pm

Mon Sep 20, 1:04pm

Mon Sep 20, 12:04pm

Mon Sep 20, 11:04am

Mon Sep 20, 10:04am

Mon Sep 20, 9:04am

Mon Sep 20, 7:04am

Mon Sep 20, 6:04am

Mon Sep 20, 5:04am

Mon Sep 20, 4:04am

Mon Sep 20, 3:04am

Mon Sep 20, 2:04am

Mon Sep 20, 1:04am

Mon Sep 20, 12:04am

Sun Sep 19, 11:04pm

Sun Sep 19, 10:04pm

Sun Sep 19, 9:04pm

Sun Sep 19, 8:04pm

Sun Sep 19, 7:04pm

Sun Sep 19, 6:04pm

Sun Sep 19, 5:04pm

Sun Sep 19, 4:04pm

Sun Sep 19, 3:04pm

Sun Sep 19, 2:05pm

Sun Sep 19, 1:04pm

Sun Sep 19, 12:04pm

Sun Sep 19, 11:04am

Sun Sep 19, 10:05am

Sun Sep 19, 9:04am

Sun Sep 19, 8:04am

Sun Sep 19, 7:04am

Sun Sep 19, 6:04am

Sun Sep 19, 5:04am

Sun Sep 19, 4:04am

Sun Sep 19, 3:04am

Sun Sep 19, 2:04am

Sun Sep 19, 1:04am

Sun Sep 19, 12:04am

Sat Sep 18, 11:05pm

Sat Sep 18, 10:04pm

Sat Sep 18, 9:04pm

Sat Sep 18, 8:04pm

Sat Sep 18, 7:04pm

Sat Sep 18, 6:04pm

Sat Sep 18, 5:04pm

Sat Sep 18, 4:04pm

Sat Sep 18, 3:04pm

Sat Sep 18, 2:04pm

Sat Sep 18, 1:04pm

Sat Sep 18, 12:04pm

Sat Sep 18, 11:04am

Sat Sep 18, 10:04am

Sat Sep 18, 9:04am

Sat Sep 18, 8:04am

Sat Sep 18, 7:04am

Sat Sep 18, 6:04am

Sat Sep 18, 5:04am

Sat Sep 18, 4:04am

Sat Sep 18, 3:04am

Sat Sep 18, 2:04am

Sat Sep 18, 1:04am

Sat Sep 18, 12:04am

Fri Sep 17, 11:04pm

Fri Sep 17, 10:04pm

Fri Sep 17, 9:04pm

Fri Sep 17, 8:04pm

Fri Sep 17, 7:04pm

Fri Sep 17, 6:04pm

Fri Sep 17, 5:04pm

Fri Sep 17, 4:04pm

Fri Sep 17, 3:04pm

Fri Sep 17, 2:04pm

Fri Sep 17, 1:04pm

Fri Sep 17, 12:05pm

Fri Sep 17, 11:04am

Fri Sep 17, 10:04am

Fri Sep 17, 9:04am

Fri Sep 17, 8:04am

Fri Sep 17, 7:04am

Fri Sep 17, 6:04am

Fri Sep 17, 5:04am

Fri Sep 17, 4:04am

Fri Sep 17, 3:04am

Fri Sep 17, 2:04am

Fri Sep 17, 1:04am

Fri Sep 17, 12:04am

Thu Sep 16, 11:04pm

Thu Sep 16, 10:04pm

Thu Sep 16, 9:04pm

Thu Sep 16, 8:04pm

Thu Sep 16, 7:04pm

Thu Sep 16, 6:04pm

Thu Sep 16, 5:04pm

Thu Sep 16, 4:04pm

Thu Sep 16, 3:04pm

Thu Sep 16, 2:04pm

Thu Sep 16, 1:05pm

Thu Sep 16, 12:04pm

Thu Sep 16, 11:05am

Thu Sep 16, 10:05am

Thu Sep 16, 9:04am

Thu Sep 16, 8:04am

Thu Sep 16, 7:04am

Thu Sep 16, 6:04am

Meta data:

ID: 1eea2bbc-4e93-4a75-9828-6aaf3fee0787
Link: https://api.weather.gov/products/1eea2bbc-4e93-4a75-9828-6aaf3fee0787